Weather in Guiyang

China     26°34′03″N   106°42′03″E
temp.,
°C
wind,
m/s
gust,
m/s
humid.,
%
clouds,
%
prec.,
mm/h
press.,
hPa
HPBL,
m
6 march, sat
sat623:00+11nne368499 2.3 1015423
02:00+10nne359198 4.2 1016283
05:00+9nne368695 0.0 1017421
08:00+10nne388694 0.0 1019595
11:00+11nne477399 0.0 1022834
14:00+13nne456993 0.1 1020839
17:00+11ne4576100 0.0 1018570
20:00+9ne378357 0.0 1020419
7 march, sun
sun723:00+9ene488242 0.0 1023506
02:00+8ene378561 0.5 1023463
05:00+7ene3885100 0.5 1022425
08:00+7ene238686 0.5 1023356
11:00+8e238299 0.1 1023406
14:00+11se247799 0.1 1020532
17:00+11ese3581100 0.0 1017439
20:00+10ese2886100 0.0 1018392
8 march, mon
mon823:00+10ese1789100 0.3 1020350
02:00+10ese2591100 0.6 1019294
05:00+10ene029399 0.1 101789
08:00+11se129494 0.3 1019120
11:00+13s2587100 0.3 1020391
14:00+14sse2686100 0.9 1017551
17:00+16sse477771 0.4 1014747
20:00+14e379166 0.6 1016342
9 march, tue
tue923:00+13ese299363 0.9 1018520
02:00+13ese289582 4.5 1017451
05:00+12se249736 0.9 1016158
08:00+13ese289558 1.8 1017442
11:00+16s6108490 1.9 1018847
14:00+20s6106789 8.9 10151239
17:00+18s587874 7.7 1013778
20:00+15ene388881 16.7 1015329
10 march, wed
wed1023:00+15ese31391100 6.3 1017714
02:00+15se31389100 14.1 1015688
05:00+14sse178985 4.4 1014284
08:00+13ne239558 6.7 1016114
11:00+15ssw138874 3.6 1017365
14:00+19wsw466866 9.1 10141073
17:00+17nne457749 3.7 1013591
20:00+13ne368938 4.8 1015300